Weather Roundup
Issued by NWS Chicago, IL

Home | Current Version | Previous Version | Graphics & Text | Print | Product List | Glossary On
Versions: 1 2 3 4 5 6 7 8 9 10 11 12 13 14 15 16 17 18 19 20 21 22 23 24 25 26 27 28 29 30 31 32 33 34 35 36 37 38 39 40 41 42 43 44 45 46 47 48 49 50
000
NZUS59 KLOT 310710
HRRLOT

CHICAGO AREA WEATHER ROUNDUP
NATIONAL WEATHER SERVICE CHICAGO/ROMEOVILLE IL
100 AM CST SAT JAN 31 2015

NOTE: "FAIR" INDICATES FEW OR NO CLOUDS BELOW 12,000 FEET WITH NO
SIGNIFICANT WEATHER AND/OR OBSTRUCTIONS TO VISIBILITY.

* THESE STATIONS ARE NOT UNDER NWS QUALITY CONTROL. THEY ALSO MAY NOT
  REPORT WEATHER SUCH AS PRECIPITATION OR FOG.

ILZ005-006-012>014-019>023-310800-
NORTHEAST ILLINOIS

CITY           SKY/WX    TMP DP  RH WIND       PRES   REMARKS
OHARE          CLOUDY    21  14  74 S6        30.31F WCI  13
MIDWAY         CLOUDY    24  15  68 S8        30.33F WCI  15
AURORA         CLOUDY    22  16  78 S3        30.32F
LANSING*       PTCLDY    19  16  87 S3        30.34F
JOLIET*        CLOUDY    21  17  86 CALM      30.34F
WAUKEGAN       CLOUDY    21  15  78 SW7       30.30F WCI  12
DUPAGE AIRPORT CLOUDY    22  16  78 S6        30.31F WCI  14
WHEELING       CLOUDY    22  14  71 S6        30.32F WCI  14
KANKAKEE*      MOCLDY    24  21  87 S6        30.36F WCI  17
MORRIS*        CLOUDY    22  20  91 CALM      30.33F
LEWIS AIRPORT* CLOUDY    22  18  83 S5        30.33F WCI  16
NORTHERLY IS     N/A     24  14  65 S6          N/A  WCI  17
$$

WIZ051-052-058>065-066-070>072-310800-
SOUTHEAST WISCONSIN

CITY           SKY/WX    TMP DP  RH WIND       PRES   REMARKS
MILWAUKEE      PTCLDY    19  11  70 SW6       30.29F WCI  11
KENOSHA*       MOCLDY    20  14  77 SW5       30.30F WCI  13
RACINE*        CLEAR     17  11  77 SW6       30.31F WCI   9
BURLINGTON     CLOUDY    16  13  88 CALM      30.29S
WAUKESHA       CLOUDY    18  12  79 S5        30.28F WCI  11
WEST BEND      MOCLDY    19  12  73 SW3       30.26F
$$

INZ001>003-010>013-019-020-310800-
NORTHWEST INDIANA

CITY           SKY/WX    TMP DP  RH WIND       PRES   REMARKS
GARY*          PTCLDY    23  16  74 S3        30.35F
MICHIGAN CITY* NOT AVBL
RENSSELAER*    NOT AVBL
VALPARAISO     CLEAR     17  14  88 CALM      30.35F
$$

LMZ740>746-310800-
SOUTHERN LAKE MICHIGAN

STATION/POSITION TIME  SKY/WX   TEMP WIND        PRES    VSBY
                                AIR  DIR/SP/G
                 (UTC)          (F)  (DEG/KT/KT) (MB)    (MI)
HARRISON CRIB    0700            25  190/ 14/ 15   N/A
BURNHAM HARBOR   0700            24  190/  5/  7   N/A
CALUMET HARBOR   0700            23  180/  4/  5   N/A
BURNS HARBOR     NOT AVBL
MICHIGAN CITY    0700            22  180/  8/  9   N/A
$$

ABBREVIATIONS USED IN REMARKS
   TC - TEMPERATURE IN CELSIUS
  WCI - WIND CHILL INDEX
   HX - HEAT INDEX
  VSB - VISIBILITY
$$



USA.gov is the U.S. government's official web portal to all federal, state and local government web resources and services.